Погода в Михайловке

Россия / Орловская область     52°51′59″N   37°33′29″E
темп.,
°C
ветер,
м/с
пор.,
м/с
влажн.,
%
обл.,
%
осадки,
мм/ч
давл.,
гПа
погр.,
м
28 ноября, вс
вс2800:00+3ю6129798 0.0 1004303
03:00+3ю51198100 0.0 1005321
06:00+4ююз41099100 0.0 1005328
09:00+4ююз3898100 0.0 1006207
12:00+5зюз379253 0.0 1007308
15:00+5ююз249032 0.0 1009115
18:00+4ююв359595 0.0 100979
21:00+5ююв4893100 0.0 1009248
29 ноября, пн
пн2900:00+5ююв4889100 0.0 1009318
03:00+4юв51194100 0.0 1007247
06:00+4вюв51098100 0.0 1004244
09:00+6вюв61598100 5.1 1001552
12:00+6ююв51299100 2.4 998402
15:00+8ю61298100 2.5 997473
18:00+8ююв51296100 0.2 995466
21:00+7вюв51197100 1.1 990402
30 ноября, вт
вт3000:00+9ююв61398100 9.2 983548
03:00+8ююз92084100 14.9 9791370
06:00+7юз131890100 4.7 9781297
09:00+1юз152396100 9.3 9831135
12:00+1зюз142288100 1.6 9871193
15:00+1зюз121979100 1.6 9891108
18:00+1юз101781100 0.0 9911239
21:00+1юз9168087 0.1 9911314
1 декабря, ср
ср100:00−1юз81385100 0.1 991863
03:00−1зюз81283100 0.3 9921040
06:00−2зюз81383100 0.1 9911004
09:00−2з71293100 0.4 993947
12:00−2з81191100 0.8 995950
15:00−3з81290100 1.5 996953
18:00−3з71289100 0.4 998825
21:00−4зсз81283100 0.4 1000756
2 декабря, чт
чт200:00−4зсз697999 0.1 1002773
03:00−6з498876 0.1 1004490
06:00−6зюз498989 0.0 1006389
09:00−4ююз41087100 0.0 1006372
12:00−2ююз71489100 0.1 1004624
15:00−1ююз81696100 1.4 1003681
18:00+1юз71597100 0.4 1004614
21:00+1юз71490100 0.4 1005463